| time (UTC) | temp F | wind direction | speed MPH | gust MPH | rain 1hr in | rain 24hr in | rain mn in | humidity % | barometer mb |
| 20260903033331 | 85 | 154 | 6.0 | 10.0 | 0.00 | 0.00 | 0.00 | 88 | 1015.0 |
| 20260903032830 | 85 | 134 | 1.0 | 5.0 | 0.00 | 0.00 | 0.00 | 88 | 1015.3 |
| 20260903032326 | 85 | 203 | 0.0 | 4.0 | 0.00 | 0.00 | 0.00 | 88 | 1015.4 |
| 20260903031821 | 85 | 18 | 0.0 | 2.0 | 0.00 | 0.00 | 0.00 | 88 | 1015.3 |
| 20260903031321 | 85 | 170 | 2.0 | 5.0 | 0.00 | 0.00 | 0.00 | 88 | 1015.3 |
| 20260903030817 | 85 | 102 | 2.0 | 6.0 | 0.00 | 0.00 | 0.00 | 88 | 1015.3 |
| 20260903030313 | 85 | 206 | 1.0 | 5.0 | 0.00 | 0.00 | 0.00 | 88 | 1015.1 |
| 20260903025808 | 85 | 217 | 0.0 | 8.0 | 0.00 | 0.00 | 0.00 | 88 | 1015.1 |
| 20260903025306 | 85 | 162 | 1.0 | 6.0 | 0.00 | 0.00 | 0.00 | 89 | 1015.0 |
| 20260903024758 | 85 | 143 | 1.0 | 3.0 | 0.00 | 0.00 | 0.00 | 89 | 1014.9 |
| 20260903024257 | 85 | 208 | 2.0 | 5.0 | 0.00 | 0.00 | 0.00 | 89 | 1014.7 |
| 20260903023753 | 85 | 210 | 2.0 | 7.0 | 0.00 | 0.00 | 0.00 | 89 | 1014.8 |
| 20260903023249 | 85 | 217 | 0.0 | 5.0 | 0.00 | 0.00 | 0.00 | 89 | 1014.8 |
| 20260903022749 | 85 | 145 | 4.0 | 6.0 | 0.00 | 0.00 | 0.00 | 89 | 1014.8 |
| 20260903022248 | 85 | 127 | 1.0 | 6.0 | 0.00 | 0.00 | 0.00 | 89 | 1014.4 |
| 20260903021747 | 85 | 160 | 3.0 | 4.0 | 0.00 | 0.00 | 0.00 | 89 | 1014.3 |
| 20260903021243 | 85 | 146 | 2.0 | 3.0 | 0.00 | 0.00 | 0.00 | 89 | 1014.4 |
| 20260903020743 | 85 | 184 | 0.0 | 5.0 | 0.00 | 0.00 | 0.00 | 89 | 1014.3 |
| 20260903020237 | 85 | 236 | 1.0 | 4.0 | 0.00 | 0.00 | 0.00 | 90 | 1014.3 |
| 20260903015732 | 85 | 127 | 6.0 | 11.0 | 0.00 | 0.00 | 0.00 | 89 | 1014.4 |
| 20260903015228 | 85 | 138 | 2.0 | 5.0 | 0.00 | 0.00 | 0.00 | 89 | 1014.3 |
| 20260903014723 | 85 | 134 | 1.0 | 5.0 | 0.00 | 0.00 | 0.00 | 89 | 1014.2 |
| 20260903014222 | 85 | 154 | 1.0 | 6.0 | 0.00 | 0.00 | 0.00 | 89 | 1014.3 |
| 20260903013718 | 85 | 201 | 1.0 | 9.0 | 0.00 | 0.00 | 0.00 | 89 | 1014.2 |
| 20260903013217 | 86 | 94 | 2.0 | 3.0 | 0.00 | 0.00 | 0.00 | 89 | 1014.3 |
| 20260903012716 | 86 | 140 | 0.0 | 6.0 | 0.00 | 0.00 | 0.00 | 88 | 1014.3 |
| 20260903012215 | 86 | 120 | 3.0 | 6.0 | 0.00 | 0.00 | 0.00 | 88 | 1014.2 |
| 20260903011710 | 86 | 166 | 0.0 | 6.0 | 0.00 | 0.00 | 0.00 | 88 | 1014.3 |
| 20260903011210 | 86 | 156 | 3.0 | 7.0 | 0.00 | 0.00 | 0.00 | 87 | 1013.9 |
| 20260903010706 | 86 | 174 | 4.0 | 9.0 | 0.00 | 0.00 | 0.00 | 87 | 1013.8 |
| 20260903010205 | 86 | 8 | 0.0 | 4.0 | 0.00 | 0.00 | 0.00 | 86 | 1013.7 |
| 20260903005704 | 86 | 150 | 6.0 | 11.0 | 0.00 | 0.00 | 0.00 | 86 | 1013.5 |
| 20260903005200 | 86 | 135 | 4.0 | 5.0 | 0.00 | 0.00 | 0.00 | 85 | 1013.9 |
| 20260903004655 | 86 | 202 | 1.0 | 9.0 | 0.00 | 0.00 | 0.00 | 85 | 1014.0 |
| 20260903004149 | 87 | 141 | 5.0 | 7.0 | 0.00 | 0.00 | 0.00 | 84 | 1014.0 |
| 20260903003645 | 87 | 257 | 3.0 | 7.0 | 0.00 | 0.00 | 0.00 | 84 | 1013.9 |
| 20260903003140 | 87 | 180 | 0.0 | 8.0 | 0.00 | 0.00 | 0.00 | 83 | 1013.9 |
| 20260903002636 | 87 | 189 | 1.0 | 4.0 | 0.00 | 0.00 | 0.00 | 82 | 1013.8 |
| 20260903002130 | 87 | 316 | 0.0 | 5.0 | 0.00 | 0.00 | 0.00 | 81 | 1013.4 |
| 20260903001624 | 87 | 118 | 0.0 | 5.0 | 0.00 | 0.00 | 0.00 | 81 | 1013.0 |
| 20260903001119 | 87 | 196 | 2.0 | 9.0 | 0.00 | 0.00 | 0.00 | 80 | 1013.1 |
| 20260903000615 | 88 | 220 | 2.0 | 10.0 | 0.00 | 0.00 | 0.00 | 79 | 1012.9 |
| 20260903000114 | 88 | 219 | 2.0 | 7.0 | 0.00 | 0.00 | 0.00 | 78 | 1013.2 |
| 20260902235613 | 88 | 221 | 2.0 | 12.0 | 0.00 | 0.00 | 0.00 | 77 | 1013.2 |
| 20260902235108 | 89 | 139 | 6.0 | 7.0 | 0.00 | 0.00 | 0.00 | 77 | 1013.1 |
| 20260902234602 | 89 | 222 | 2.0 | 7.0 | 0.00 | 0.00 | 0.00 | 76 | 1013.3 |
| 20260902234100 | 89 | 223 | 3.0 | 4.0 | 0.00 | 0.00 | 0.00 | 75 | 1013.5 |
| 20260902233556 | 89 | 147 | 3.0 | 11.0 | 0.00 | 0.00 | 0.00 | 74 | 1013.2 |
| 20260902233050 | 89 | 82 | 1.0 | 12.0 | 0.00 | 0.00 | 0.00 | 74 | 1013.4 |
| 20260902232549 | 89 | 179 | 2.0 | 12.0 | 0.00 | 0.00 | 0.00 | 74 | 1013.4 |
| 20260902232044 | 90 | 137 | 5.0 | 15.0 | 0.00 | 0.00 | 0.00 | 73 | 1013.3 |
| 20260902231539 | 90 | 180 | 2.0 | 11.0 | 0.00 | 0.00 | 0.00 | 74 | 1013.3 |
| 20260902231039 | 90 | 185 | 2.0 | 7.0 | 0.00 | 0.00 | 0.00 | 74 | 1013.2 |
| 20260902230539 | 91 | 216 | 4.0 | 8.0 | 0.00 | 0.00 | 0.00 | 73 | 1013.0 |
| 20260902230038 | 91 | 211 | 1.0 | 7.0 | 0.00 | 0.00 | 0.00 | 72 | 1013.1 |
| 20260902225533 | 91 | 170 | 4.0 | 9.0 | 0.00 | 0.00 | 0.00 | 72 | 1012.9 |
| 20260902225032 | 92 | 243 | 3.0 | 5.0 | 0.00 | 0.00 | 0.00 | 72 | 1013.0 |
| 20260902224531 | 93 | 207 | 4.0 | 10.0 | 0.00 | 0.00 | 0.00 | 70 | 1013.1 |
| 20260902224027 | 93 | 259 | 1.0 | 7.0 | 0.00 | 0.00 | 0.00 | 67 | 1013.4 |
| 20260902223524 | 93 | 284 | 2.0 | 6.0 | 0.00 | 0.00 | 0.00 | 67 | 1013.1 |
| 20260902223022 | 93 | 202 | 2.0 | 9.0 | 0.00 | 0.00 | 0.00 | 67 | 1013.0 |
| 20260902222521 | 94 | 143 | 2.0 | 5.0 | 0.00 | 0.00 | 0.00 | 65 | 1013.2 |
| 20260902222020 | 94 | 257 | 2.0 | 11.0 | 0.00 | 0.00 | 0.00 | 66 | 1013.2 |
| 20260902221515 | 95 | 235 | 3.0 | 4.0 | 0.00 | 0.00 | 0.00 | 65 | 1013.2 |
| 20260902221010 | 96 | 169 | 4.0 | 7.0 | 0.00 | 0.00 | 0.00 | 64 | 1013.1 |
| 20260902220505 | 96 | 50 | 2.0 | 9.0 | 0.00 | 0.00 | 0.00 | 66 | 1012.9 |
| 20260902215959 | 95 | 200 | 2.0 | 11.0 | 0.00 | 0.00 | 0.00 | 67 | 1013.0 |
| 20260902215456 | 95 | 173 | 2.0 | 7.0 | 0.00 | 0.00 | 0.00 | 67 | 1013.1 |
| 20260902214952 | 95 | 155 | 4.0 | 6.0 | 0.00 | 0.00 | 0.00 | 68 | 1013.2 |
| 20260902214450 | 94 | 198 | 2.0 | 11.0 | 0.00 | 0.00 | 0.00 | 69 | 1013.0 |
| 20260902213950 | 92 | 178 | 3.0 | 15.0 | 0.00 | 0.00 | 0.00 | 71 | 1013.1 |
| 20260902213447 | 92 | 198 | 2.0 | 7.0 | 0.00 | 0.00 | 0.00 | 71 | 1013.3 |
| 20260902212944 | 92 | 279 | 4.0 | 9.0 | 0.00 | 0.00 | 0.00 | 71 | 1013.4 |
| 20260902212441 | 92 | 112 | 6.0 | 10.0 | 0.00 | 0.00 | 0.00 | 72 | 1013.0 |
| 20260902211932 | 92 | 168 | 3.0 | 13.0 | 0.00 | 0.00 | 0.00 | 71 | 1013.0 |
| 20260902211427 | 93 | 163 | 2.0 | 10.0 | 0.00 | 0.00 | 0.00 | 70 | 1013.5 |
| 20260902210922 | 93 | 147 | 3.0 | 8.0 | 0.00 | 0.00 | 0.00 | 70 | 1013.3 |
| 20260902210422 | 94 | 258 | 1.0 | 7.0 | 0.00 | 0.00 | 0.00 | 69 | 1013.5 |
| 20260902205920 | 94 | 217 | 5.0 | 6.0 | 0.00 | 0.00 | 0.00 | 68 | 1013.4 |
| 20260902205416 | 96 | 96 | 2.0 | 4.0 | 0.00 | 0.00 | 0.00 | 61 | 1013.3 |
| 20260902204911 | 96 | 61 | 1.0 | 4.0 | 0.00 | 0.00 | 0.00 | 61 | 1013.4 |
| 20260902204410 | 96 | 237 | 3.0 | 8.0 | 0.00 | 0.00 | 0.00 | 61 | 1013.5 |
| 20260902203906 | 96 | 229 | 3.0 | 6.0 | 0.00 | 0.00 | 0.00 | 61 | 1013.4 |
| 20260902203402 | 96 | 234 | 1.0 | 6.0 | 0.00 | 0.00 | 0.00 | 62 | 1013.8 |
| 20260902202856 | 98 | 253 | 2.0 | 4.0 | 0.00 | 0.00 | 0.00 | 59 | 1013.6 |
| 20260902202352 | 99 | 276 | 2.0 | 4.0 | 0.00 | 0.00 | 0.00 | 59 | 1013.6 |
| 20260902201849 | 98 | 253 | 2.0 | 3.0 | 0.00 | 0.00 | 0.00 | 58 | 1013.9 |
| 20260902201348 | 98 | 265 | 3.0 | 5.0 | 0.00 | 0.00 | 0.00 | 58 | 1013.8 |
| 20260902200843 | 97 | 247 | 3.0 | 6.0 | 0.00 | 0.00 | 0.00 | 60 | 1013.9 |
| 20260902200338 | 97 | 266 | 3.0 | 5.0 | 0.00 | 0.00 | 0.00 | 59 | 1014.0 |
| 20260902195834 | 97 | 206 | 2.0 | 7.0 | 0.00 | 0.00 | 0.00 | 61 | 1014.2 |
| 20260902195333 | 96 | 230 | 3.0 | 7.0 | 0.00 | 0.00 | 0.00 | 61 | 1014.1 |
| 20260902194827 | 96 | 127 | 0.0 | 6.0 | 0.00 | 0.00 | 0.00 | 62 | 1014.2 |
| 20260902194322 | 96 | 304 | 0.0 | 6.0 | 0.00 | 0.00 | 0.00 | 62 | 1014.3 |
| 20260902193818 | 97 | 309 | 1.0 | 4.0 | 0.00 | 0.00 | 0.00 | 62 | 1014.3 |
| 20260902193314 | 97 | 242 | 1.0 | 7.0 | 0.00 | 0.00 | 0.00 | 63 | 1014.5 |
| 20260902192813 | 96 | 242 | 1.0 | 3.0 | 0.00 | 0.00 | 0.00 | 64 | 1014.4 |
| 20260902192311 | 95 | 290 | 1.0 | 7.0 | 0.00 | 0.00 | 0.00 | 65 | 1014.6 |
| 20260902191811 | 94 | 295 | 2.0 | 5.0 | 0.00 | 0.00 | 0.00 | 65 | 1014.5 |
| 20260902191306 | 95 | 287 | 1.0 | 8.0 | 0.00 | 0.00 | 0.00 | 65 | 1014.6 |
| 20260902190801 | 95 | 248 | 3.0 | 6.0 | 0.00 | 0.00 | 0.00 | 63 | 1014.7 |
| 20260902190300 | 95 | 220 | 2.0 | 5.0 | 0.00 | 0.00 | 0.00 | 64 | 1014.7 |
| 20260902185756 | 95 | 243 | 2.0 | 5.0 | 0.00 | 0.00 | 0.00 | 64 | 1014.7 |
| 20260902185251 | 95 | 313 | 3.0 | 4.0 | 0.00 | 0.00 | 0.00 | 64 | 1014.7 |
| 20260902184748 | 95 | 275 | 3.0 | 8.0 | 0.00 | 0.00 | 0.00 | 64 | 1014.8 |
| 20260902184243 | 96 | 316 | 3.0 | 4.0 | 0.00 | 0.00 | 0.00 | 63 | 1014.9 |
| 20260902183738 | 95 | 289 | 3.0 | 7.0 | 0.00 | 0.00 | 0.00 | 64 | 1015.0 |
| 20260902183234 | 95 | 304 | 10.0 | 11.0 | 0.00 | 0.00 | 0.00 | 64 | 1014.9 |
| 20260902182731 | 96 | 319 | 4.0 | 6.0 | 0.00 | 0.00 | 0.00 | 65 | 1015.1 |
| 20260902182226 | 95 | 253 | 0.0 | 4.0 | 0.00 | 0.00 | 0.00 | 66 | 1015.2 |
| 20260902181723 | 95 | 304 | 2.0 | 6.0 | 0.00 | 0.00 | 0.00 | 67 | 1015.3 |
| 20260902181223 | 95 | 221 | 5.0 | 9.0 | 0.00 | 0.00 | 0.00 | 67 | 1015.4 |
| 20260902180717 | 95 | 232 | 3.0 | 5.0 | 0.00 | 0.00 | 0.00 | 68 | 1015.4 |
| 20260902180212 | 94 | 220 | 2.0 | 11.0 | 0.00 | 0.00 | 0.00 | 71 | 1015.5 |
| 20260902175707 | 93 | 52 | 0.0 | 9.0 | 0.00 | 0.00 | 0.00 | 72 | 1015.7 |
| 20260902175203 | 93 | 74 | 3.0 | 12.0 | 0.00 | 0.00 | 0.00 | 72 | 1015.5 |
| 20260902174659 | 93 | 196 | 4.0 | 6.0 | 0.00 | 0.00 | 0.00 | 72 | 1015.8 |
| 20260902174155 | 92 | 328 | 4.0 | 7.0 | 0.00 | 0.00 | 0.00 | 74 | 1016.0 |
| 20260902173650 | 91 | 299 | 4.0 | 8.0 | 0.00 | 0.00 | 0.00 | 76 | 1015.8 |
| 20260902173145 | 91 | 288 | 1.0 | 6.0 | 0.00 | 0.00 | 0.00 | 77 | 1016.0 |
| 20260902172639 | 92 | 227 | 2.0 | 5.0 | 0.00 | 0.00 | 0.00 | 75 | 1015.9 |
| 20260902172138 | 91 | 128 | 2.0 | 4.0 | 0.00 | 0.00 | 0.00 | 77 | 1015.9 |
| 20260902171633 | 91 | 265 | 1.0 | 7.0 | 0.00 | 0.00 | 0.00 | 77 | 1016.3 |
| 20260902171129 | 92 | 273 | 1.0 | 6.0 | 0.00 | 0.00 | 0.00 | 75 | 1016.1 |
| 20260902170625 | 92 | 224 | 4.0 | 4.0 | 0.00 | 0.00 | 0.00 | 75 | 1016.2 |
| 20260902170120 | 92 | 297 | 1.0 | 4.0 | 0.00 | 0.00 | 0.00 | 78 | 1016.3 |
| 20260902165615 | 91 | 204 | 0.0 | 7.0 | 0.00 | 0.00 | 0.00 | 76 | 1016.1 |
| 20260902165109 | 91 | 219 | 2.0 | 5.0 | 0.00 | 0.00 | 0.00 | 78 | 1016.6 |
| 20260902164604 | 90 | 257 | 0.0 | 8.0 | 0.00 | 0.00 | 0.00 | 80 | 1016.6 |
| 20260902164103 | 90 | 303 | 0.0 | 5.0 | 0.00 | 0.00 | 0.00 | 80 | 1016.6 |
| 20260902163559 | 90 | 84 | 1.0 | 7.0 | 0.00 | 0.00 | 0.00 | 79 | 1016.4 |
| 20260902163057 | 90 | 341 | 0.0 | 8.0 | 0.00 | 0.00 | 0.00 | 82 | 1016.6 |
| 20260902162551 | 90 | 300 | 0.0 | 5.0 | 0.00 | 0.00 | 0.00 | 81 | 1016.6 |
| 20260902162046 | 90 | 320 | 4.0 | 10.0 | 0.00 | 0.00 | 0.00 | 79 | 1016.5 |
| 20260902161546 | 90 | 85 | 1.0 | 4.0 | 0.00 | 0.00 | 0.00 | 81 | 1016.8 |
| 20260902161043 | 91 | 326 | 0.0 | 3.0 | 0.00 | 0.00 | 0.00 | 82 | 1016.8 |
| 20260902160538 | 91 | 292 | 2.0 | 6.0 | 0.00 | 0.00 | 0.00 | 82 | 1016.6 |
| 20260902160033 | 90 | 284 | 0.0 | 6.0 | 0.00 | 0.00 | 0.00 | 83 | 1016.7 |
| 20260902155526 | 89 | 283 | 0.0 | 6.0 | 0.00 | 0.00 | 0.00 | 84 | 1016.7 |
| 20260902155025 | 88 | 269 | 0.0 | 7.0 | 0.00 | 0.00 | 0.00 | 85 | 1016.6 |
| 20260902154521 | 89 | 341 | 0.0 | 6.0 | 0.00 | 0.00 | 0.00 | 84 | 1016.7 |
| 20260902154015 | 88 | 306 | 3.0 | 8.0 | 0.00 | 0.00 | 0.00 | 86 | 1016.6 |
| 20260902153514 | 87 | 324 | 2.0 | 11.0 | 0.00 | 0.00 | 0.00 | 87 | 1016.3 |
| 20260902153010 | 87 | 88 | 0.0 | 3.0 | 0.00 | 0.00 | 0.00 | 88 | 1016.6 |
| 20260902152506 | 87 | 267 | 4.0 | 6.0 | 0.00 | 0.00 | 0.00 | 88 | 1016.5 |
| 20260902152001 | 86 | 4 | 0.0 | 10.0 | 0.00 | 0.00 | 0.00 | 89 | 1016.3 |
| 20260902151457 | 86 | 231 | 0.0 | 6.0 | 0.00 | 0.00 | 0.00 | 89 | 1016.5 |
| 20260902150956 | 86 | 323 | 0.0 | 7.0 | 0.00 | 0.00 | 0.00 | 89 | 1016.3 |
| 20260902150452 | 85 | 297 | 0.0 | 4.0 | 0.00 | 0.00 | 0.00 | 90 | 1016.1 |
| 20260902145951 | 85 | 265 | 0.0 | 3.0 | 0.00 | 0.00 | 0.00 | 91 | 1016.5 |
| 20260902145442 | 85 | 321 | 0.0 | 5.0 | 0.00 | 0.00 | 0.00 | 91 | 1016.4 |
| 20260902144941 | 84 | 323 | 0.0 | 2.0 | 0.00 | 0.00 | 0.00 | 91 | 1016.3 |
| 20260902144438 | 84 | 107 | 2.0 | 2.0 | 0.00 | 0.00 | 0.00 | 92 | 1016.4 |
| 20260902143932 | 84 | 98 | 1.0 | 3.0 | 0.00 | 0.00 | 0.00 | 91 | 1016.4 |
| 20260902143427 | 83 | 242 | 0.0 | 3.0 | 0.00 | 0.00 | 0.00 | 92 | 1016.4 |
| 20260902142922 | 83 | 304 | 0.0 | 3.0 | 0.00 | 0.00 | 0.00 | 92 | 1016.1 |
| 20260902142418 | 83 | 249 | 2.0 | 3.0 | 0.00 | 0.00 | 0.00 | 92 | 1016.1 |
| 20260902141914 | 83 | 220 | 0.0 | 3.0 | 0.00 | 0.00 | 0.00 | 92 | 1016.0 |
| 20260902141409 | 82 | 229 | 0.0 | 2.0 | 0.00 | 0.00 | 0.00 | 91 | 1016.1 |
| 20260902140908 | 82 | 261 | 1.0 | 3.0 | 0.00 | 0.00 | 0.00 | 91 | 1016.3 |
| 20260902140404 | 82 | 217 | 0.0 | 2.0 | 0.00 | 0.00 | 0.00 | 92 | 1016.3 |
| 20260902135858 | 82 | 112 | 1.0 | 2.0 | 0.00 | 0.00 | 0.00 | 92 | 1016.3 |
| 20260902135354 | 82 | 235 | 0.0 | 3.0 | 0.00 | 0.00 | 0.00 | 92 | 1016.2 |
| 20260902134852 | 82 | 295 | 1.0 | 2.0 | 0.00 | 0.00 | 0.00 | 91 | 1016.4 |
| 20260902134349 | 81 | 243 | 0.0 | 2.0 | 0.00 | 0.00 | 0.00 | 91 | 1016.1 |
| 20260902133843 | 81 | 13 | 0.0 | 2.0 | 0.00 | 0.00 | 0.00 | 91 | 1016.3 |
| 20260902133343 | 81 | 157 | 0.0 | 2.0 | 0.00 | 0.00 | 0.00 | 91 | 1016.2 |
| 20260902132838 | 81 | 230 | 0.0 | 2.0 | 0.00 | 0.00 | 0.00 | 91 | 1016.4 |
| 20260902132333 | 81 | 239 | 1.0 | 2.0 | 0.00 | 0.00 | 0.00 | 91 | 1016.1 |
| 20260902131829 | 81 | 80 | 0.0 | 2.0 | 0.00 | 0.00 | 0.00 | 91 | 1016.1 |
| 20260902131326 | 80 | 239 | 2.0 | 5.0 | 0.00 | 0.00 | 0.00 | 91 | 1016.1 |
| 20260902130825 | 80 | 254 | 1.0 | 3.0 | 0.00 | 0.00 | 0.00 | 91 | 1015.8 |
| 20260902130321 | 80 | 136 | 1.0 | 4.0 | 0.00 | 0.00 | 0.00 | 91 | 1015.7 |
| 20260902125816 | 80 | 322 | 0.0 | 2.0 | 0.00 | 0.00 | 0.00 | 91 | 1015.6 |
| 20260902125312 | 80 | 202 | 0.0 | 2.0 | 0.00 | 0.00 | 0.00 | 91 | 1015.7 |
| 20260902124808 | 80 | 294 | 0.0 | 2.0 | 0.00 | 0.00 | 0.00 | 90 | 1015.7 |
| 20260902124303 | 80 | 259 | 1.0 | 2.0 | 0.00 | 0.00 | 0.00 | 90 | 1015.6 |
| 20260902123758 | 80 | 190 | 0.0 | 5.0 | 0.00 | 0.00 | 0.00 | 90 | 1015.7 |
| 20260902123254 | 80 | 235 | 0.0 | 2.0 | 0.00 | 0.00 | 0.00 | 91 | 1015.6 |
| 20260902122753 | 80 | 253 | 0.0 | 1.0 | 0.00 | 0.00 | 0.00 | 91 | 1015.4 |
| 20260902122249 | 80 | 89 | 0.0 | 5.0 | 0.00 | 0.00 | 0.00 | 92 | 1015.3 |
| 20260902121749 | 80 | 245 | 0.0 | 3.0 | 0.00 | 0.00 | 0.00 | 94 | 1015.2 |
| 20260902121244 | 80 | 128 | 0.0 | 3.0 | 0.00 | 0.00 | 0.00 | 95 | 1015.0 |
| 20260902120739 | 80 | 228 | 1.0 | 3.0 | 0.00 | 0.00 | 0.00 | 96 | 1015.0 |
| 20260902120235 | 80 | 250 | 1.0 | 4.0 | 0.00 | 0.00 | 0.00 | 97 | 1015.0 |
| 20260902115730 | 80 | 292 | 0.0 | 6.0 | 0.00 | 0.00 | 0.00 | 98 | 1015.1 |
| 20260902115226 | 80 | 237 | 1.0 | 4.0 | 0.00 | 0.00 | 0.00 | 99 | 1015.0 |
| 20260902114722 | 80 | 179 | 3.0 | 4.0 | 0.00 | 0.00 | 0.00 | 99 | 1014.9 |
| 20260902114217 | 80 | 117 | 0.0 | 2.0 | 0.00 | 0.00 | 0.00 | 98 | 1014.9 |
| 20260902113712 | 80 | 309 | 0.0 | 1.0 | 0.00 | 0.00 | 0.00 | 98 | 1014.7 |
| 20260902113207 | 80 | 205 | 0.0 | 1.0 | 0.00 | 0.00 | 0.00 | 98 | 1015.1 |
| 20260902112707 | 80 | 243 | 0.0 | 3.0 | 0.00 | 0.00 | 0.00 | 98 | 1015.0 |
| 20260902112204 | 80 | 205 | 0.0 | 3.0 | 0.00 | 0.00 | 0.00 | 98 | 1014.8 |
| 20260902111659 | 80 | 219 | 0.0 | 2.0 | 0.00 | 0.00 | 0.00 | 98 | 1014.8 |
| 20260902111155 | 80 | 5 | 0.0 | 3.0 | 0.00 | 0.00 | 0.00 | 98 | 1015.0 |
| 20260902110650 | 80 | 198 | 2.0 | 4.0 | 0.00 | 0.00 | 0.00 | 98 | 1014.8 |
| 20260902110147 | 80 | 141 | 0.0 | 3.0 | 0.00 | 0.00 | 0.00 | 98 | 1014.6 |
| 20260902105646 | 80 | 298 | 0.0 | 3.0 | 0.00 | 0.00 | 0.00 | 98 | 1014.9 |
| 20260902105142 | 80 | 223 | 0.0 | 2.0 | 0.00 | 0.00 | 0.00 | 98 | 1014.8 |
| 20260902104637 | 80 | 217 | 0.0 | 2.0 | 0.00 | 0.00 | 0.00 | 98 | 1014.9 |
| 20260902104132 | 80 | 199 | 1.0 | 2.0 | 0.00 | 0.00 | 0.00 | 98 | 1015.0 |
| 20260902103632 | 80 | 227 | 2.0 | 3.0 | 0.00 | 0.00 | 0.00 | 98 | 1014.9 |
| 20260902103127 | 80 | 233 | 0.0 | 2.0 | 0.00 | 0.00 | 0.00 | 98 | 1015.1 |
| 20260902102623 | 80 | 218 | 1.0 | 2.0 | 0.00 | 0.00 | 0.00 | 97 | 1014.7 |
| 20260902102120 | 80 | 161 | 0.0 | 2.0 | 0.00 | 0.00 | 0.00 | 97 | 1014.9 |
| 20260902101615 | 80 | 297 | 0.0 | 2.0 | 0.00 | 0.00 | 0.00 | 97 | 1014.8 |
| 20260902101114 | 80 | 321 | 0.0 | 2.0 | 0.00 | 0.00 | 0.00 | 97 | 1014.7 |
| 20260902100609 | 80 | 242 | 0.0 | 1.0 | 0.00 | 0.00 | 0.00 | 97 | 1014.6 |
| 20260902100104 | 80 | 179 | 0.0 | 3.0 | 0.00 | 0.00 | 0.00 | 97 | 1014.6 |
| 20260902095603 | 80 | 218 | 0.0 | 4.0 | 0.00 | 0.00 | 0.00 | 97 | 1014.5 |
| 20260902095103 | 80 | 254 | 3.0 | 4.0 | 0.00 | 0.00 | 0.00 | 97 | 1014.5 |
| 20260902094558 | 80 | 206 | 0.0 | 2.0 | 0.00 | 0.00 | 0.00 | 97 | 1014.5 |
| 20260902094054 | 80 | 291 | 1.0 | 3.0 | 0.00 | 0.00 | 0.00 | 97 | 1014.7 |
| 20260902093553 | 80 | 237 | 0.0 | 5.0 | 0.00 | 0.00 | 0.00 | 97 | 1014.8 |
| 20260902093048 | 80 | 256 | 0.0 | 3.0 | 0.00 | 0.00 | 0.00 | 97 | 1014.8 |
| 20260902092538 | 80 | 122 | 0.0 | 3.0 | 0.00 | 0.00 | 0.00 | 97 | 1014.5 |
| 20260902092033 | 80 | 283 | 2.0 | 3.0 | 0.00 | 0.00 | 0.00 | 97 | 1014.5 |
| 20260902091528 | 80 | 230 | 2.0 | 4.0 | 0.00 | 0.00 | 0.00 | 97 | 1014.6 |
| 20260902091024 | 80 | 200 | 1.0 | 1.0 | 0.00 | 0.00 | 0.00 | 97 | 1014.5 |
| 20260902090520 | 80 | 214 | 0.0 | 5.0 | 0.00 | 0.00 | 0.00 | 97 | 1014.5 |
| 20260902090018 | 80 | 278 | 2.0 | 5.0 | 0.00 | 0.00 | 0.00 | 97 | 1014.2 |
| 20260902085513 | 80 | 140 | 0.0 | 3.0 | 0.00 | 0.00 | 0.00 | 97 | 1014.5 |
| 20260902085008 | 80 | 236 | 0.0 | 3.0 | 0.00 | 0.00 | 0.00 | 97 | 1014.4 |
| 20260902084504 | 80 | 340 | 0.0 | 3.0 | 0.00 | 0.00 | 0.00 | 97 | 1014.5 |
| 20260902083959 | 80 | 106 | 2.0 | 3.0 | 0.00 | 0.00 | 0.00 | 97 | 1014.5 |
| 20260902083454 | 80 | 124 | 2.0 | 5.0 | 0.00 | 0.00 | 0.00 | 97 | 1014.4 |
| 20260902082949 | 80 | 226 | 1.0 | 3.0 | 0.00 | 0.00 | 0.00 | 97 | 1014.4 |
| 20260902082445 | 80 | 70 | 0.0 | 3.0 | 0.00 | 0.00 | 0.00 | 97 | 1014.4 |
| 20260902081941 | 80 | 200 | 0.0 | 5.0 | 0.00 | 0.00 | 0.00 | 97 | 1014.4 |
| 20260902081438 | 80 | 232 | 0.0 | 3.0 | 0.00 | 0.00 | 0.00 | 97 | 1014.8 |
| 20260902080932 | 80 | 204 | 1.0 | 3.0 | 0.00 | 0.00 | 0.00 | 97 | 1014.8 |
| 20260902080428 | 80 | 315 | 1.0 | 5.0 | 0.00 | 0.00 | 0.00 | 96 | 1014.7 |
| 20260902075927 | 80 | 252 | 0.0 | 2.0 | 0.00 | 0.00 | 0.00 | 97 | 1014.8 |
| 20260902075424 | 80 | 235 | 0.0 | 3.0 | 0.00 | 0.00 | 0.00 | 97 | 1014.8 |
| 20260902074919 | 80 | 280 | 2.0 | 4.0 | 0.00 | 0.00 | 0.00 | 97 | 1014.7 |
| 20260902074415 | 80 | 104 | 0.0 | 5.0 | 0.00 | 0.00 | 0.00 | 97 | 1014.5 |
| 20260902073909 | 80 | 136 | 1.0 | 3.0 | 0.00 | 0.00 | 0.00 | 97 | 1014.7 |
| 20260902073405 | 80 | 284 | 0.0 | 3.0 | 0.00 | 0.00 | 0.00 | 97 | 1014.6 |
| 20260902072901 | 80 | 229 | 0.0 | 2.0 | 0.00 | 0.00 | 0.00 | 96 | 1014.6 |
| 20260902072357 | 80 | 80 | 0.0 | 3.0 | 0.00 | 0.00 | 0.00 | 96 | 1014.6 |
| 20260902071853 | 80 | 351 | 0.0 | 2.0 | 0.00 | 0.00 | 0.00 | 96 | 1014.8 |
| 20260902071353 | 80 | 327 | 0.0 | 3.0 | 0.00 | 0.00 | 0.00 | 96 | 1014.8 |
| 20260902070849 | 80 | 221 | 0.0 | 3.0 | 0.00 | 0.00 | 0.00 | 96 | 1014.8 |
| 20260902070344 | 81 | 89 | 0.0 | 3.0 | 0.00 | 0.00 | 0.00 | 96 | 1014.7 |
| 20260902065842 | 81 | 204 | 1.0 | 3.0 | 0.00 | 0.00 | 0.00 | 96 | 1014.6 |
| 20260902065338 | 81 | 203 | 2.0 | 4.0 | 0.00 | 0.00 | 0.00 | 95 | 1014.6 |
| 20260902064833 | 81 | 73 | 1.0 | 3.0 | 0.00 | 0.00 | 0.00 | 95 | 1014.5 |
| 20260902064330 | 81 | 295 | 2.0 | 4.0 | 0.00 | 0.00 | 0.00 | 95 | 1014.7 |
| 20260902063825 | 81 | 251 | 3.0 | 6.0 | 0.00 | 0.00 | 0.00 | 95 | 1014.7 |
| 20260902063325 | 81 | 196 | 0.0 | 3.0 | 0.00 | 0.00 | 0.00 | 95 | 1014.7 |
| 20260902062819 | 81 | 250 | 0.0 | 3.0 | 0.00 | 0.00 | 0.00 | 95 | 1014.8 |
| 20260902062314 | 81 | 215 | 0.0 | 4.0 | 0.00 | 0.00 | 0.00 | 95 | 1014.6 |
| 20260902061813 | 81 | 272 | 0.0 | 4.0 | 0.00 | 0.00 | 0.00 | 95 | 1014.5 |
| 20260902061309 | 81 | 239 | 2.0 | 3.0 | 0.00 | 0.00 | 0.00 | 95 | 1014.5 |
| 20260902060805 | 81 | 223 | 2.0 | 5.0 | 0.00 | 0.00 | 0.00 | 95 | 1014.6 |
| 20260902060301 | 81 | 95 | 1.0 | 5.0 | 0.00 | 0.00 | 0.00 | 95 | 1014.5 |
| 20260902055755 | 81 | 151 | 0.0 | 4.0 | 0.00 | 0.00 | 0.00 | 95 | 1014.6 |
| 20260902055247 | 81 | 205 | 0.0 | 7.0 | 0.00 | 0.00 | 0.00 | 94 | 1014.6 |
| 20260902054746 | 81 | 207 | 1.0 | 3.0 | 0.00 | 0.00 | 0.00 | 94 | 1014.6 |
| 20260902054242 | 81 | 298 | 0.0 | 3.0 | 0.00 | 0.00 | 0.00 | 94 | 1014.5 |
| 20260902053737 | 81 | 299 | 1.0 | 5.0 | 0.00 | 0.00 | 0.00 | 93 | 1014.4 |
| 20260902053237 | 81 | 179 | 0.0 | 4.0 | 0.00 | 0.00 | 0.00 | 93 | 1014.6 |
| 20260902052731 | 81 | 192 | 0.0 | 5.0 | 0.00 | 0.00 | 0.00 | 93 | 1014.6 |
| 20260902052227 | 81 | 271 | 0.0 | 4.0 | 0.00 | 0.00 | 0.00 | 93 | 1014.7 |
| 20260902051726 | 81 | 245 | 3.0 | 3.0 | 0.00 | 0.00 | 0.00 | 93 | 1014.6 |
| 20260902051220 | 81 | 146 | 1.0 | 2.0 | 0.00 | 0.00 | 0.00 | 94 | 1014.7 |
| 20260902050715 | 80 | 265 | 2.0 | 2.0 | 0.00 | 0.00 | 0.00 | 94 | 1014.7 |
| 20260902050211 | 80 | 336 | 0.0 | 1.0 | 0.00 | 0.00 | 0.00 | 94 | 1014.8 |
| 20260902045711 | 80 | 345 | 0.0 | 1.0 | 0.00 | 0.04 | 0.04 | 94 | 1014.7 |
| 20260902045207 | 80 | 89 | 0.0 | 2.0 | 0.00 | 0.04 | 0.04 | 93 | 1014.7 |
| 20260902044702 | 80 | 119 | 0.0 | 0.0 | 0.00 | 0.04 | 0.04 | 93 | 1014.7 |
| 20260902044158 | 80 | 103 | 0.0 | 1.0 | 0.00 | 0.04 | 0.04 | 93 | 1014.6 |
| 20260902043653 | 80 | 235 | 0.0 | 2.0 | 0.00 | 0.04 | 0.04 | 92 | 1014.6 |
| 20260902043148 | 80 | 290 | 0.0 | 2.0 | 0.00 | 0.04 | 0.04 | 92 | 1014.7 |
| 20260902042647 | 80 | 252 | 1.0 | 3.0 | 0.00 | 0.04 | 0.04 | 92 | 1014.9 |
| 20260902042143 | 80 | 131 | 0.0 | 2.0 | 0.00 | 0.04 | 0.04 | 92 | 1015.0 |
| 20260902041642 | 80 | 129 | 0.0 | 2.0 | 0.00 | 0.04 | 0.04 | 92 | 1014.7 |
| 20260902041137 | 80 | 130 | 0.0 | 2.0 | 0.00 | 0.04 | 0.04 | 93 | 1014.7 |
| 20260902040636 | 80 | 189 | 0.0 | 2.0 | 0.00 | 0.04 | 0.04 | 92 | 1014.8 |
| 20260902040132 | 80 | 211 | 1.0 | 2.0 | 0.00 | 0.04 | 0.04 | 93 | 1014.9 |
| 20260902035630 | 80 | 220 | 0.0 | 2.0 | 0.00 | 0.04 | 0.04 | 93 | 1014.7 |
| 20260902035126 | 80 | 217 | 0.0 | 2.0 | 0.00 | 0.04 | 0.04 | 93 | 1014.7 |
| 20260902034625 | 80 | 230 | 0.0 | 1.0 | 0.00 | 0.04 | 0.04 | 93 | 1014.8 |
| 20260902034119 | 80 | 142 | 0.0 | 2.0 | 0.00 | 0.04 | 0.04 | 93 | 1014.8 |